Flag for Finland Weather past 2 weeks in Kemi, Finland

Now
82 °F

Passing clouds.


Feels Like: 83 °F
Forecast: 64 / 76 °F
Wind: 8 mph from West

Location: Kemi Airport

Current Time: Jul 25, 2014 at 5:24:09 PM

Latest Report: Jul 25, 2014 at 4:50 PM


Visibility: N/A

Pressure: 30.09 "Hg

Humidity: 48%

Dew point: 61 °F

Location of KemiLocation

Historic Weather in Kemi — Graph

°F

Kemi temperature yesterday

Maximum temperature yesterday: 84 °F (at 1:50 PM)
Minimum temperature yesterday: 57 °F (at 3:20 AM)
Average temperature yesterday: 72 °F

Past Weeks' High & Low Weather Summary

 TemperatureHumidityPressure
High84 °F (Jul 14, 3:50 PM)100% (Jul 15, 12:20 AM)30.27 "Hg (Jul 15, 12:20 AM)
Low46 °F (Jul 11, 1:50 AM)33% (Jul 14, 5:50 PM)29.80 "Hg (Jul 15, 9:20 PM)
Average67 °F74%30.09 "Hg
* Reported Jul 10 4:00 PM — Jul 25 4:20 PM, Kemi, Weather by CustomWeather, © 2014

Note: Actual official high and low records may vary slightly from our data, if they occured in-between our weather recording intervals... More about our weather records

Advertising

Kemi weather history for previous 24 hours

 ConditionsComfort  
Time TempWeatherWind HumidityBarometerVisibility
4:20 PM
Jul 25
82 °FSunny.3 mph48%30.09 "Hg10 mi
3:50 PM82 °FPassing clouds.5 mph42%30.12 "HgN/A
3:20 PM82 °FPassing clouds.6 mph42%30.12 "HgN/A
2:50 PM82 °FPassing clouds.6 mph42%30.12 "HgN/A
2:20 PM81 °FPassing clouds.6 mph45%30.12 "HgN/A
1:50 PM81 °FPassing clouds.6 mph42%30.12 "HgN/A
1:20 PM81 °FPassing clouds.7 mph42%30.12 "HgN/A
12:50 PM79 °FPassing clouds.7 mph48%30.12 "HgN/A
12:20 PM79 °FPassing clouds.6 mph48%30.15 "HgN/A
11:50 AM77 °FPassing clouds.6 mph54%30.15 "HgN/A
11:20 AM77 °FPassing clouds.6 mph54%30.15 "HgN/A
11:00 AM77 °FPassing clouds.6 mph54%30.15 "HgN/A
10:20 AM75 °FPassing clouds.6 mph57%30.15 "HgN/A
9:50 AM73 °FPassing clouds.7 mph61%30.15 "HgN/A
9:20 AM73 °FSunny.8 mph61%30.12 "Hg10 mi
8:50 AM72 °FPassing clouds.8 mph65%30.12 "HgN/A
8:20 AM70 °FPassing clouds.8 mph69%30.12 "HgN/A
7:50 AM68 °FPassing clouds.7 mph73%30.15 "HgN/A
7:20 AM66 °FSunny.6 mph78%30.12 "Hg10 mi
6:50 AM64 °FSunny.6 mph83%30.12 "Hg10 mi
6:20 AM63 °FSunny.6 mph88%30.12 "Hg10 mi
5:50 AM61 °FSunny.6 mph94%30.12 "Hg10 mi
5:20 AM59 °FSunny.5 mph88%30.12 "Hg10 mi
4:50 AM59 °FSunny.3 mph94%30.12 "Hg10 mi
4:20 AM59 °FClear.No wind94%30.12 "HgN/A
3:50 AM59 °FFog.1 mph94%30.12 "Hg1 mi
3:20 AM59 °FClear.3 mph100%30.12 "Hg10 mi
2:50 AM61 °FClear.No wind94%30.12 "Hg10 mi
2:20 AM61 °FClear.No wind94%30.12 "Hg3 mi
1:50 AM61 °FClear.No wind94%30.12 "Hg3 mi
1:20 AM63 °FFog.No wind94%30.12 "Hg2 mi
12:50 AM63 °FClear.No wind94%30.12 "Hg1 mi
12:20 AM64 °FFog.No wind88%30.12 "Hg3 mi
11:50 PM
Jul 24
64 °FSunny.No wind88%30.12 "Hg10 mi
11:20 PM66 °FSunny.No wind83%30.12 "Hg10 mi
10:50 PM70 °FSunny.No wind78%30.12 "Hg10 mi
10:20 PM73 °FSunny.3 mph69%30.12 "Hg10 mi
9:50 PM75 °FSunny.6 mph61%30.12 "Hg10 mi
9:20 PM75 °FPassing clouds.7 mph61%30.12 "HgN/A
8:50 PM77 °FPassing clouds.8 mph65%30.12 "HgN/A
8:20 PM79 °FPassing clouds.8 mph51%30.12 "HgN/A
7:50 PM79 °FPassing clouds.8 mph58%30.12 "HgN/A
7:20 PM81 °FPassing clouds.6 mph45%30.12 "HgN/A
6:50 PM81 °FPassing clouds.7 mph45%30.12 "HgN/A
5:50 PM81 °FPassing clouds.12 mph42%30.15 "HgN/A
5:20 PM81 °FPassing clouds.10 mph45%30.15 "HgN/A
Weather by CustomWeather, © 2014

See weather overviewHow to use our weather pages